| time (UTC) | temp C | wind direction | speed KPH | gust KPH | rain 1hr cm | rain 24hr cm | rain mn cm | humidity % | barometer mb |
| 20260505063218 | 12 | 248 | 4.8 | 11.3 | 0.00 | 0.00 | 0.00 | 57 | 998.1 |
| 20260505062718 | 12 | 259 | 4.8 | 14.5 | 0.00 | 0.00 | 0.00 | 58 | 998.0 |
| 20260505062218 | 11 | 261 | 4.8 | 11.3 | 0.00 | 0.00 | 0.00 | 60 | 998.1 |
| 20260505061718 | 12 | 194 | 4.8 | 9.7 | 0.00 | 0.00 | 0.00 | 60 | 998.1 |
| 20260505061218 | 11 | 186 | 3.2 | 9.7 | 0.00 | 0.00 | 0.00 | 61 | 998.2 |
| 20260505060718 | 11 | 202 | 4.8 | 8.0 | 0.00 | 0.00 | 0.00 | 61 | 998.1 |
| 20260505060218 | 11 | 169 | 4.8 | 12.9 | 0.00 | 0.00 | 0.00 | 63 | 998.2 |
| 20260505055718 | 11 | 181 | 6.4 | 14.5 | 0.00 | 0.00 | 0.00 | 62 | 998.3 |
| 20260505055218 | 12 | 232 | 4.8 | 12.9 | 0.00 | 0.00 | 0.00 | 61 | 998.2 |
| 20260505054718 | 12 | 251 | 4.8 | 12.9 | 0.00 | 0.00 | 0.00 | 61 | 998.2 |
| 20260505054218 | 12 | 263 | 6.4 | 11.3 | 0.00 | 0.00 | 0.00 | 61 | 998.1 |
| 20260505053718 | 12 | 268 | 6.4 | 19.3 | 0.00 | 0.00 | 0.00 | 60 | 997.9 |
| 20260505053218 | 12 | 254 | 6.4 | 14.5 | 0.00 | 0.00 | 0.00 | 60 | 997.8 |
| 20260505052718 | 12 | 229 | 6.4 | 14.5 | 0.00 | 0.00 | 0.00 | 59 | 997.7 |
| 20260505052218 | 12 | 221 | 8.0 | 17.7 | 0.00 | 0.00 | 0.00 | 58 | 997.7 |
| 20260505051718 | 12 | 267 | 6.4 | 16.1 | 0.00 | 0.00 | 0.00 | 57 | 997.8 |
| 20260505051219 | 12 | 196 | 6.4 | 14.5 | 0.00 | 0.00 | 0.00 | 57 | 997.7 |
| 20260505050718 | 12 | 261 | 6.4 | 14.5 | 0.00 | 0.00 | 0.00 | 57 | 997.6 |
| 20260505050218 | 12 | 205 | 6.4 | 17.7 | 0.00 | 0.00 | 0.00 | 57 | 997.5 |
| 20260505041718 | 15 | 162 | 4.8 | 14.5 | 0.00 | 0.00 | 0.00 | 45 | 996.9 |
| 20260505041218 | 15 | 227 | 4.8 | 8.0 | 0.00 | 0.00 | 0.00 | 42 | 996.8 |
| 20260505040718 | 15 | 238 | 4.8 | 9.7 | 0.00 | 0.00 | 0.00 | 42 | 996.7 |
| 20260505040218 | 15 | 252 | 6.4 | 12.9 | 0.00 | 0.00 | 0.00 | 42 | 996.7 |
| 20260505035718 | 15 | 213 | 4.8 | 12.9 | 0.00 | 0.00 | 0.00 | 42 | 996.7 |
| 20260505035218 | 15 | 250 | 3.2 | 12.9 | 0.00 | 0.00 | 0.00 | 41 | 996.6 |
| 20260505034718 | 15 | 268 | 3.2 | 16.1 | 0.00 | 0.00 | 0.00 | 41 | 996.5 |
| 20260505034218 | 15 | 212 | 3.2 | 16.1 | 0.00 | 0.00 | 0.00 | 41 | 996.4 |
| 20260505033718 | 15 | 258 | 3.2 | 11.3 | 0.00 | 0.00 | 0.00 | 41 | 996.4 |
| 20260505033218 | 15 | 246 | 3.2 | 12.9 | 0.00 | 0.00 | 0.00 | 41 | 996.4 |
| 20260505032718 | 15 | 251 | 3.2 | 11.3 | 0.00 | 0.00 | 0.00 | 42 | 996.2 |
| 20260505032218 | 15 | 168 | 3.2 | 9.7 | 0.00 | 0.00 | 0.00 | 43 | 996.2 |
| 20260505031718 | 15 | 214 | 4.8 | 9.7 | 0.00 | 0.00 | 0.00 | 44 | 996.2 |
| 20260505031218 | 15 | 177 | 4.8 | 11.3 | 0.00 | 0.00 | 0.00 | 44 | 996.0 |
| 20260505030718 | 15 | 209 | 4.8 | 11.3 | 0.00 | 0.00 | 0.00 | 44 | 995.9 |
| 20260505030218 | 15 | 244 | 3.2 | 4.8 | 0.00 | 0.00 | 0.00 | 44 | 995.9 |
| 20260505025718 | 15 | 250 | 3.2 | 11.3 | 0.00 | 0.00 | 0.00 | 45 | 996.1 |
| 20260505025218 | 15 | 252 | 4.8 | 12.9 | 0.00 | 0.00 | 0.00 | 44 | 996.1 |
| 20260505024718 | 16 | 252 | 3.2 | 9.7 | 0.00 | 0.00 | 0.00 | 44 | 996.0 |
| 20260505024218 | 16 | 253 | 3.2 | 8.0 | 0.00 | 0.00 | 0.00 | 43 | 996.0 |
| 20260505023718 | 16 | 254 | 3.2 | 9.7 | 0.00 | 0.00 | 0.00 | 44 | 995.9 |
| 20260505023218 | 16 | 254 | 3.2 | 8.0 | 0.00 | 0.00 | 0.00 | 44 | 995.9 |
| 20260505022718 | 16 | 254 | 3.2 | 6.4 | 0.00 | 0.00 | 0.00 | 43 | 995.9 |
| 20260505022218 | 16 | 254 | 3.2 | 8.0 | 0.00 | 0.00 | 0.00 | 42 | 995.9 |
| 20260505021718 | 16 | 254 | 3.2 | 8.0 | 0.00 | 0.00 | 0.00 | 41 | 995.9 |
| 20260505021218 | 16 | 255 | 3.2 | 6.4 | 0.00 | 0.00 | 0.00 | 41 | 995.9 |
| 20260505020718 | 16 | 255 | 3.2 | 6.4 | 0.00 | 0.00 | 0.00 | 41 | 995.8 |
| 20260505020218 | 16 | 255 | 3.2 | 8.0 | 0.00 | 0.00 | 0.00 | 41 | 995.8 |
| 20260505015718 | 17 | 255 | 3.2 | 9.7 | 0.00 | 0.00 | 0.00 | 41 | 995.9 |
| 20260505015218 | 17 | 256 | 4.8 | 9.7 | 0.00 | 0.00 | 0.00 | 41 | 995.9 |
| 20260505014718 | 17 | 257 | 4.8 | 11.3 | 0.00 | 0.00 | 0.00 | 39 | 995.8 |
| 20260505014218 | 18 | 257 | 3.2 | 11.3 | 0.00 | 0.00 | 0.00 | 39 | 995.7 |
| 20260505013718 | 18 | 257 | 0.0 | 9.7 | 0.00 | 0.00 | 0.00 | 33 | 995.8 |
| 20260505013218 | 18 | 257 | 0.0 | 6.4 | 0.00 | 0.00 | 0.00 | 33 | 995.7 |
| 20260505012718 | 18 | 257 | 0.0 | 4.8 | 0.00 | 0.00 | 0.00 | 32 | 995.7 |
| 20260505012218 | 19 | 257 | 0.0 | 8.0 | 0.00 | 0.00 | 0.00 | 32 | 995.8 |
| 20260505011718 | 19 | 257 | 0.0 | 4.8 | 0.00 | 0.00 | 0.00 | 32 | 995.9 |
| 20260505011218 | 19 | 257 | 0.0 | 0.0 | 0.00 | 0.00 | 0.00 | 32 | 995.8 |
| 20260505010718 | 20 | 257 | 0.0 | 3.2 | 0.00 | 0.00 | 0.00 | 32 | 995.8 |
| 20260505010218 | 20 | 257 | 0.0 | 4.8 | 0.00 | 0.00 | 0.00 | 33 | 995.7 |
| 20260505005718 | 20 | 257 | 0.0 | 0.0 | 0.00 | 0.00 | 0.00 | 33 | 995.7 |
| 20260505005218 | 20 | 257 | 0.0 | 0.0 | 0.00 | 0.00 | 0.00 | 32 | 995.8 |
| 20260505004719 | 20 | 257 | 0.0 | 0.0 | 0.00 | 0.00 | 0.00 | 32 | 995.8 |
| 20260505004219 | 19 | 257 | 0.0 | 0.0 | 0.00 | 0.00 | 0.00 | 34 | 995.8 |
| 20260505003719 | 19 | 257 | 0.0 | 0.0 | 0.00 | 0.00 | 0.00 | 34 | 995.9 |
| 20260505003218 | 18 | 257 | 0.0 | 0.0 | 0.00 | 0.00 | 0.00 | 34 | 995.9 |
| 20260505002718 | 18 | 257 | 0.0 | 0.0 | 0.00 | 0.00 | 0.00 | 32 | 995.9 |
| 20260505002219 | 18 | 257 | 0.0 | 0.0 | 0.00 | 0.00 | 0.00 | 34 | 995.9 |
| 20260505001719 | 18 | 257 | 0.0 | 0.0 | 0.00 | 0.00 | 0.00 | 34 | 996.0 |
| 20260505001219 | 18 | 257 | 0.0 | 0.0 | 0.00 | 0.00 | 0.00 | 35 | 996.0 |
| 20260505000719 | 18 | 257 | 0.0 | 0.0 | 0.00 | 0.00 | 0.00 | 34 | 996.1 |
| 20260505000219 | 18 | 257 | 0.0 | 0.0 | 0.00 | 0.00 | 0.00 | 35 | 996.0 |
| 20260504235719 | 18 | 257 | 0.0 | 0.0 | 0.00 | 0.00 | 0.00 | 35 | 996.0 |
| 20260504235219 | 18 | 257 | 0.0 | 0.0 | 0.00 | 0.00 | 0.00 | 34 | 996.0 |
| 20260504234719 | 18 | 257 | 1.6 | 3.2 | 0.00 | 0.00 | 0.00 | 34 | 996.1 |
| 20260504234219 | 18 | 257 | 1.6 | 4.8 | 0.00 | 0.00 | 0.00 | 36 | 996.0 |
| 20260504233719 | 18 | 257 | 3.2 | 6.4 | 0.00 | 0.00 | 0.00 | 35 | 996.1 |
| 20260504233219 | 18 | 259 | 4.8 | 9.7 | 0.00 | 0.00 | 0.00 | 35 | 996.1 |
| 20260504232719 | 18 | 263 | 1.6 | 9.7 | 0.00 | 0.00 | 0.00 | 36 | 996.0 |
| 20260504232219 | 18 | 276 | 1.6 | 1.6 | 0.00 | 0.00 | 0.00 | 34 | 996.2 |
| 20260504231719 | 18 | 276 | 3.2 | 6.4 | 0.00 | 0.00 | 0.00 | 33 | 996.1 |
| 20260504231219 | 18 | 276 | 6.4 | 17.7 | 0.00 | 0.00 | 0.00 | 32 | 996.2 |
| 20260504230719 | 18 | 278 | 4.8 | 14.5 | 0.00 | 0.00 | 0.00 | 32 | 996.2 |
| 20260504230219 | 18 | 277 | 4.8 | 12.9 | 0.00 | 0.00 | 0.00 | 32 | 996.2 |
| 20260504225719 | 19 | 277 | 3.2 | 17.7 | 0.00 | 0.00 | 0.00 | 31 | 996.3 |
| 20260504225219 | 20 | 278 | 3.2 | 9.7 | 0.00 | 0.00 | 0.00 | 32 | 996.3 |
| 20260504224719 | 20 | 278 | 3.2 | 6.4 | 0.00 | 0.00 | 0.00 | 31 | 996.2 |
| 20260504224219 | 20 | 278 | 3.2 | 11.3 | 0.00 | 0.00 | 0.00 | 31 | 996.2 |
| 20260504223719 | 20 | 278 | 1.6 | 6.4 | 0.00 | 0.00 | 0.00 | 33 | 996.1 |
| 20260504223219 | 20 | 278 | 1.6 | 6.4 | 0.00 | 0.00 | 0.00 | 33 | 996.1 |
| 20260504222719 | 20 | 278 | 0.0 | 4.8 | 0.00 | 0.00 | 0.00 | 34 | 996.0 |
| 20260504222219 | 19 | 278 | 1.6 | 4.8 | 0.00 | 0.00 | 0.00 | 32 | 995.9 |
| 20260504221719 | 18 | 278 | 1.6 | 3.2 | 0.00 | 0.00 | 0.00 | 35 | 995.9 |
| 20260504221219 | 18 | 278 | 1.6 | 6.4 | 0.00 | 0.00 | 0.00 | 35 | 996.0 |
| 20260504220719 | 18 | 278 | 1.6 | 6.4 | 0.00 | 0.00 | 0.00 | 36 | 996.0 |
| 20260504220219 | 18 | 278 | 1.6 | 6.4 | 0.00 | 0.00 | 0.00 | 36 | 996.1 |
| 20260504215719 | 18 | 278 | 3.2 | 4.8 | 0.00 | 0.00 | 0.00 | 40 | 996.1 |
| 20260504215219 | 18 | 278 | 3.2 | 9.7 | 0.00 | 0.00 | 0.00 | 38 | 996.3 |
| 20260504214719 | 18 | 278 | 1.6 | 6.4 | 0.00 | 0.00 | 0.00 | 41 | 996.4 |
| 20260504214219 | 18 | 278 | 1.6 | 6.4 | 0.00 | 0.00 | 0.00 | 42 | 996.4 |
| 20260504213719 | 17 | 278 | 3.2 | 8.0 | 0.00 | 0.00 | 0.00 | 41 | 996.4 |
| 20260504213219 | 17 | 278 | 3.2 | 8.0 | 0.00 | 0.00 | 0.00 | 41 | 996.5 |
| 20260504212719 | 17 | 278 | 4.8 | 12.9 | 0.00 | 0.00 | 0.00 | 41 | 996.5 |
| 20260504212219 | 16 | 278 | 4.8 | 9.7 | 0.00 | 0.00 | 0.00 | 43 | 996.5 |
| 20260504211719 | 16 | 278 | 4.8 | 17.7 | 0.00 | 0.00 | 0.00 | 42 | 996.5 |
| 20260504211219 | 16 | 279 | 6.4 | 14.5 | 0.00 | 0.00 | 0.00 | 42 | 996.6 |
| 20260504210719 | 16 | 279 | 8.0 | 14.5 | 0.00 | 0.00 | 0.00 | 41 | 996.7 |
| 20260504210219 | 17 | 284 | 6.4 | 22.5 | 0.00 | 0.00 | 0.00 | 40 | 996.9 |
| 20260504205719 | 17 | 274 | 4.8 | 19.3 | 0.00 | 0.00 | 0.00 | 39 | 996.8 |
| 20260504205219 | 17 | 278 | 4.8 | 11.3 | 0.00 | 0.00 | 0.00 | 39 | 996.8 |
| 20260504204719 | 17 | 278 | 4.8 | 9.7 | 0.00 | 0.00 | 0.00 | 38 | 996.8 |
| 20260504204219 | 17 | 278 | 6.4 | 14.5 | 0.00 | 0.00 | 0.00 | 37 | 996.7 |
| 20260504203719 | 17 | 278 | 4.8 | 12.9 | 0.00 | 0.00 | 0.00 | 36 | 996.7 |
| 20260504203219 | 17 | 279 | 4.8 | 12.9 | 0.00 | 0.00 | 0.00 | 36 | 996.7 |
| 20260504202719 | 17 | 279 | 3.2 | 11.3 | 0.00 | 0.00 | 0.00 | 36 | 996.8 |
| 20260504202219 | 17 | 280 | 3.2 | 11.3 | 0.00 | 0.00 | 0.00 | 35 | 996.9 |
| 20260504201719 | 17 | 280 | 4.8 | 14.5 | 0.00 | 0.00 | 0.00 | 35 | 996.7 |
| 20260504201219 | 18 | 281 | 3.2 | 11.3 | 0.00 | 0.00 | 0.00 | 35 | 996.7 |
| 20260504200719 | 18 | 283 | 3.2 | 9.7 | 0.00 | 0.00 | 0.00 | 35 | 996.7 |
| 20260504200219 | 18 | 281 | 3.2 | 12.9 | 0.00 | 0.00 | 0.00 | 36 | 996.7 |
| 20260504195719 | 19 | 298 | 3.2 | 9.7 | 0.00 | 0.00 | 0.00 | 35 | 996.7 |
| 20260504195219 | 19 | 355 | 1.6 | 9.7 | 0.00 | 0.00 | 0.00 | 33 | 996.7 |
| 20260504194719 | 20 | 225 | 0.0 | 9.7 | 0.00 | 0.00 | 0.00 | 32 | 996.8 |
| 20260504194219 | 20 | 157 | 0.0 | 0.0 | 0.00 | 0.00 | 0.00 | 32 | 996.8 |
| 20260504193719 | 20 | 156 | 0.0 | 0.0 | 0.00 | 0.00 | 0.00 | 31 | 996.7 |
| 20260504193219 | 20 | 156 | 0.0 | 0.0 | 0.00 | 0.00 | 0.00 | 32 | 996.8 |
| 20260504192719 | 20 | 156 | 0.0 | 1.6 | 0.00 | 0.00 | 0.00 | 30 | 997.0 |
| 20260504192219 | 20 | 156 | 0.0 | 6.4 | 0.00 | 0.00 | 0.00 | 31 | 996.9 |
| 20260504191719 | 20 | 156 | 0.0 | 4.8 | 0.00 | 0.00 | 0.00 | 32 | 996.9 |
| 20260504191219 | 20 | 156 | 1.6 | 4.8 | 0.00 | 0.00 | 0.00 | 32 | 996.9 |
| 20260504190719 | 20 | 156 | 1.6 | 3.2 | 0.00 | 0.00 | 0.00 | 33 | 996.9 |
| 20260504190219 | 20 | 157 | 1.6 | 9.7 | 0.00 | 0.00 | 0.00 | 32 | 997.1 |
| 20260504185719 | 20 | 156 | 1.6 | 9.7 | 0.00 | 0.00 | 0.00 | 31 | 997.2 |
| 20260504185219 | 20 | 184 | 1.6 | 4.8 | 0.00 | 0.00 | 0.00 | 32 | 997.1 |
| 20260504184719 | 20 | 186 | 1.6 | 6.4 | 0.00 | 0.00 | 0.00 | 31 | 997.1 |
| 20260504184219 | 21 | 184 | 3.2 | 3.2 | 0.00 | 0.00 | 0.00 | 32 | 997.2 |
| 20260504183719 | 21 | 184 | 4.8 | 9.7 | 0.00 | 0.00 | 0.00 | 31 | 997.2 |
| 20260504183219 | 21 | 165 | 4.8 | 9.7 | 0.00 | 0.00 | 0.00 | 32 | 997.1 |
| 20260504182719 | 21 | 172 | 3.2 | 8.0 | 0.00 | 0.00 | 0.00 | 32 | 997.1 |
| 20260504182219 | 21 | 180 | 1.6 | 12.9 | 0.00 | 0.00 | 0.00 | 31 | 997.2 |
| 20260504181719 | 21 | 204 | 0.0 | 0.0 | 0.00 | 0.00 | 0.00 | 33 | 997.4 |
| 20260504181219 | 21 | 204 | 1.6 | 8.0 | 0.00 | 0.00 | 0.00 | 31 | 997.5 |
| 20260504180719 | 21 | 207 | 1.6 | 4.8 | 0.00 | 0.00 | 0.00 | 32 | 997.5 |
| 20260504180219 | 21 | 190 | 1.6 | 4.8 | 0.00 | 0.00 | 0.00 | 31 | 997.5 |
| 20260504175719 | 21 | 184 | 3.2 | 8.0 | 0.00 | 0.00 | 0.00 | 33 | 997.5 |
| 20260504175219 | 21 | 202 | 3.2 | 9.7 | 0.00 | 0.00 | 0.00 | 33 | 997.6 |
| 20260504174719 | 21 | 212 | 3.2 | 4.8 | 0.00 | 0.00 | 0.00 | 33 | 997.6 |
| 20260504174219 | 21 | 215 | 4.8 | 9.7 | 0.00 | 0.00 | 0.00 | 33 | 997.7 |
| 20260504173719 | 20 | 212 | 4.8 | 9.7 | 0.00 | 0.00 | 0.00 | 34 | 997.7 |
| 20260504173219 | 20 | 175 | 3.2 | 9.7 | 0.00 | 0.00 | 0.00 | 36 | 997.8 |
| 20260504172719 | 20 | 185 | 3.2 | 8.0 | 0.00 | 0.00 | 0.00 | 35 | 997.9 |
| 20260504172219 | 20 | 186 | 3.2 | 8.0 | 0.00 | 0.00 | 0.00 | 35 | 998.0 |
| 20260504171719 | 20 | 188 | 3.2 | 6.4 | 0.00 | 0.00 | 0.00 | 35 | 998.1 |
| 20260504171219 | 20 | 187 | 4.8 | 9.7 | 0.00 | 0.00 | 0.00 | 36 | 998.0 |
| 20260504170719 | 20 | 191 | 3.2 | 9.7 | 0.00 | 0.00 | 0.00 | 36 | 998.0 |
| 20260504170219 | 20 | 198 | 3.2 | 8.0 | 0.00 | 0.00 | 0.00 | 37 | 998.1 |
| 20260504160219 | 17 | 213 | 4.8 | 11.3 | 0.00 | 0.00 | 0.00 | 40 | 998.2 |
| 20260504150719 | 17 | 249 | 4.8 | 11.3 | 0.00 | 0.00 | 0.00 | 40 | 998.5 |
| 20260504150219 | 16 | 205 | 4.8 | 9.7 | 0.00 | 0.00 | 0.00 | 41 | 998.6 |
| 20260504141220 | 15 | 222 | 4.8 | 9.7 | 0.00 | 0.00 | 0.00 | 43 | 998.7 |
| 20260504140720 | 15 | 219 | 3.2 | 8.0 | 0.00 | 0.00 | 0.00 | 44 | 998.7 |
| 20260504140220 | 15 | 219 | 1.6 | 8.0 | 0.00 | 0.00 | 0.00 | 45 | 998.7 |
| 20260504130720 | 12 | 224 | 3.2 | 4.8 | 0.00 | 0.00 | 0.00 | 50 | 999.0 |
| 20260504130220 | 12 | 224 | 1.6 | 8.0 | 0.00 | 0.00 | 0.00 | 49 | 999.1 |
| 20260504120220 | 13 | 223 | 3.2 | 8.0 | 0.00 | 0.00 | 0.00 | 46 | 999.1 |
| 20260504110720 | 15 | 196 | 4.8 | 16.1 | 0.00 | 0.00 | 0.00 | 41 | 998.7 |
| 20260504110220 | 15 | 217 | 4.8 | 16.1 | 0.00 | 0.00 | 0.00 | 41 | 998.6 |
| 20260504100220 | 15 | 223 | 4.8 | 12.9 | 0.00 | 0.00 | 0.00 | 39 | 999.0 |
| 20260504081720 | 16 | 267 | 3.2 | 9.7 | 0.00 | 0.00 | 0.00 | 26 | 998.6 |
| 20260504081220 | 16 | 265 | 3.2 | 11.3 | 0.00 | 0.00 | 0.00 | 26 | 998.6 |
| 20260504080720 | 16 | 266 | 1.6 | 11.3 | 0.00 | 0.00 | 0.00 | 27 | 998.9 |
| 20260504080220 | 16 | 220 | 3.2 | 8.0 | 0.00 | 0.00 | 0.00 | 27 | 998.9 |
| 20260504070220 | 15 | 5 | 0.0 | 0.0 | 0.00 | 0.00 | 0.00 | 28 | 998.7 |